[[{"header":{"parameterUnit":"m.s-1","parameterCategory":1,"la1":30.2991,"la2":30.254,"lo1":-89.0895,"lo2":-89.0444,"dy":0.0017,"dx":0.0017,"nx":28,"ny":28,"refTime":"2024-09-02T03:00:00:Z","depth":0,"parameterNumber":2,"parameterNumberName":"U-component_of_WINDS"},"data":[0,0,0,0,0,0,0,0,0,0,0,0,0,0,0,0,0,0,0,0,0,0,0,0,0,0,0,0,0,0,0,0,0,0,0,0,0,0,0,0,0,0,0,0,0,0,0,0,0,0,0,0,0,0,0,0,0,0,0.2529,0.2527,0,0.2265,0.2262,0.2259,0.2146,0.2147,0.2147,0.2148,0.1863,0.1855,0.1847,0,0,0,0,0,0,0,0,0,0,0,0,0,0.292,0.2914,0.253,0.2526,0.2523,0.2265,0.2262,0.2258,0.2146,0.2147,0.2148,0.2148,0.1865,0.1856,0.1846,0,0,0,0,0,0,0,0,0,0,0,0,0,0.2712,0.2911,0.253,0.2437,0.2426,0.2266,0.2262,0.2257,0.2146,0.2147,0.2148,0.2148,0.1869,0.1857,0.1845,0.1754,0,0,0.1808,0.1803,0,0,0,0,0,0,0,0,0.2724,0.2698,0.2454,0.2443,0.243,0.224,0.2295,0.2088,0.2146,0.2252,0.2148,0.2149,0.1987,0.1965,0.1913,0.1741,0.1729,0.1807,0.1799,0.1794,0.1791,0,0,0,0,0,0,0,0.2739,0.2709,0.2424,0.245,0.2436,0.2402,0.2373,0.2255,0.2117,0.2243,0.2234,0.2205,0.198,0.1925,0.1905,0.1725,0.1807,0.1796,0.1789,0.1784,0.1457,0.1456,0,0,0,0,0,0,0.2771,0.2722,0.2433,0.2417,0.2583,0.2394,0.2362,0.23,0.2119,0.2092,0.2205,0.2201,0.1945,0.192,0.1895,0.1773,0.1794,0.1783,0.1776,0.1459,0.1457,0.1455,0,0,0,0,0,0,0.278,0.2746,0.2443,0.2566,0.2525,0.2387,0.2318,0.2294,0.2239,0.209,0.2063,0.2175,0.1945,0.1912,0.179,0.1762,0.1777,0.1766,0.146,0.1458,0.1456,0.1531,0,0,0,0,0,0,0.2791,0.275,0.2719,0.2567,0.252,0.2348,0.2316,0.2288,0.222,0.2213,0.2055,0.2029,0.1943,0.1808,0.1778,0.1745,0.1757,0.1462,0.1459,0.1457,0.1531,0.1532,0.1533,0,0,0,0,0,0.2806,0.2749,0.2718,0.2684,0.2479,0.2347,0.2319,0.2226,0.2219,0.2183,0.2086,0.2034,0.177,0.1797,0.1761,0.1725,0.1463,0.146,0.1457,0.153,0.1532,0.1533,0,0,0,0,0,0,0.2898,0.2728,0.2692,0.2585,0.2482,0.2329,0.2281,0.2231,0.2124,0.2121,0.2004,0.1969,0.1855,0.1777,0.181,0.1624,0.1612,0.1601,0.168,0.168,0.1681,0.1701,0.1747,0,0,0,0,0,0.2907,0.282,0.2673,0.2593,0.2543,0.2422,0.2361,0.2297,0.2183,0.2138,0.2032,0.192,0.181,0.1741,0.1633,0.1519,0.1479,0.1475,0.1477,0.1479,0.147,0.1398,0.1393,0.1445,0.1445,0.1445,0,0,0.2922,0.2818,0.277,0.2609,0.2521,0.2428,0.2385,0.2289,0.2216,0.2121,0.2,0.1918,0.1784,0.1664,0.1606,0.1596,0.1447,0.1475,0.1477,0.1467,0.1394,0.1389,0.1385,0.1443,0.1443,0.1444,0,0,0.2902,0.2818,0.274,0.2653,0.2522,0.244,0.2422,0.2275,0.2218,0.2095,0.202,0.1928,0.1745,0.1651,0.1579,0.1518,0.1464,0.1485,0.1491,0.1422,0.1418,0.1414,0.1387,0.138,0.1478,0.1478,0.1478,0,0.2937,0.2799,0.2704,0.2612,0.254,0.2453,0.2368,0.2287,0.2126,0.2075,0.2067,0.1831,0.1735,0.1589,0.1574,0.1521,0.149,0.1503,0.1428,0.1422,0.1416,0.139,0.1381,0.1481,0.1481,0.1481,0.148,0,0.2845,0.275,0.2701,0.2552,0.2474,0.2386,0.2272,0.2203,0.2145,0.2062,0.1933,0.1815,0.1679,0.1639,0.1581,0.1483,0.148,0.1451,0.1436,0.1417,0.1389,0.1379,0.1486,0.1485,0.1484,0.1483,0,0,0.2879,0.2676,0.2659,0.2588,0.2435,0.2356,0.226,0.2131,0.2072,0.1962,0.1874,0.1719,0.169,0.1608,0.1537,0.1477,0.143,0.1454,0.1449,0.145,0.1308,0.133,0.132,0.1394,0.1392,0.139,0.1318,0,0.2836,0.2668,0.2578,0.2444,0.2351,0.2264,0.2179,0.2073,0.1991,0.1895,0.1802,0.1693,0.1666,0.1615,0.1551,0.145,0.1399,0.1454,0.1305,0.1301,0.134,0.1306,0.1329,0.1268,0.1307,0.1306,0.1304,0,0.2766,0.266,0.2519,0.2372,0.2329,0.2256,0.2127,0.2038,0.1912,0.1856,0.1763,0.1693,0.1581,0.1575,0.1416,0.1455,0.1388,0.1328,0.1323,0.1304,0.1301,0.1283,0.1247,0.1237,0.1287,0.1289,0.129,0,0.28,0.2622,0.2513,0.2455,0.2282,0.2231,0.2155,0.2031,0.1957,0.1841,0.179,0.1663,0.1592,0.1491,0.1385,0.1391,0.1234,0.1221,0.1179,0.1181,0.1149,0.1152,0.1099,0.1111,0.1111,0.1111,0.1111,0,0.2761,0.2677,0.2526,0.2459,0.2359,0.2252,0.2154,0.2071,0.196,0.1869,0.1785,0.17,0.1567,0.1463,0.1379,0.1256,0.1225,0.1173,0.1151,0.1179,0.1185,0.1132,0.1133,0.1108,0.1109,0.1109,0.111,0,0.2783,0.2679,0.2554,0.24,0.2359,0.2292,0.2156,0.2084,0.1997,0.1884,0.185,0.1712,0.1586,0.147,0.1302,0.1244,0.1119,0.1092,0.1163,0.1151,0.1114,0.1118,0.1023,0.1002,0.1032,0.1032,0.1032,0,0.2765,0.2698,0.2537,0.2473,0.24,0.2297,0.2221,0.211,0.2034,0.1882,0.1826,0.1695,0.1584,0.1384,0.1265,0.1133,0.1101,0.1076,0.1081,0.1109,0.1096,0.11,0.109,0.1078,0.1078,0.1078,0.1078,0,0.2742,0.2692,0.259,0.2467,0.2379,0.2276,0.217,0.212,0.1987,0.1904,0.1776,0.169,0.1517,0.1385,0.124,0.1154,0.1091,0.1078,0.106,0.1088,0.113,0.1103,0.1164,0.108,0.108,0.108,0.108,0.108,0.274,0.2675,0.2551,0.2436,0.2345,0.2246,0.217,0.2073,0.1966,0.182,0.1759,0.1628,0.1495,0.1294,0.1208,0.1098,0.1086,0.1062,0.1055,0.105,0.1054,0.115,0.1072,0.1071,0.1071,0.1071,0.1071,0,0.2709,0.2625,0.2521,0.2376,0.2284,0.2237,0.2115,0.204,0.1927,0.1811,0.1703,0.1552,0.1422,0.1291,0.1152,0.1089,0.1056,0.1056,0.1058,0.1038,0.1075,0.1103,0.1085,0.1085,0.1085,0.1085,0.1085,0.1085,0.2683,0.2569,0.2504,0.2341,0.2254,0.2128,0.2062,0.1967,0.1874,0.171,0.1603,0.152,0.1395,0.1246,0.1122,0.1086,0.1037,0.1044,0.0999,0.1036,0.1036,0.1036,0.1061,0.1035,0.1035,0.097,0.097,0.097]},{"header":{"parameterUnit":"m.s-1","parameterCategory":1,"la1":30.2991,"la2":30.254,"lo1":-89.0895,"lo2":-89.0444,"dy":0.0017,"dx":0.0017,"nx":28,"ny":28,"refTime":"2024-09-02T03:00:00:Z","depth":0,"parameterNumber":3,"parameterNumberName":"V-component_of_WINDS"},"data":[0,0,0,0,0,0,0,0,0,0,0,0,0,0,0,0,0,0,0,0,0,0,0,0,0,0,0,0,0,0,0,0,0,0,0,0,0,0,0,0,0,0,0,0,0,0,0,0,0,0,0,0,0,0,0,0,0,0,1.5255,1.5257,0,1.5423,1.5425,1.5427,1.5527,1.5528,1.5528,1.5528,1.5708,1.5713,1.5717,0,0,0,0,0,0,0,0,0,0,0,0,0,1.5031,1.5035,1.5255,1.5257,1.5259,1.5423,1.5425,1.5428,1.5527,1.5528,1.5528,1.5529,1.5707,1.5712,1.5717,0,0,0,0,0,0,0,0,0,0,0,0,0,1.5157,1.5036,1.5255,1.5329,1.5337,1.5422,1.5425,1.5428,1.5527,1.5528,1.5528,1.5529,1.5705,1.5711,1.5718,1.5746,0,0,1.5738,1.5741,0,0,0,0,0,0,0,0,1.5149,1.5165,1.5316,1.5324,1.5333,1.5455,1.5412,1.5535,1.5527,1.5455,1.5528,1.5529,1.5624,1.5637,1.5668,1.5754,1.5762,1.5739,1.5743,1.5746,1.5747,0,0,0,0,0,0,0,1.5141,1.5158,1.5322,1.5318,1.5328,1.5357,1.5375,1.5436,1.5534,1.5461,1.5469,1.5487,1.5629,1.5661,1.5673,1.5764,1.5738,1.5744,1.5748,1.5751,1.5886,1.5886,0,0,0,0,0,0,1.5119,1.515,1.5317,1.5327,1.5241,1.536,1.5381,1.5415,1.5534,1.5552,1.5486,1.5491,1.5649,1.5665,1.5679,1.5721,1.5745,1.5752,1.5755,1.5887,1.5886,1.5886,0,0,0,0,0,0,1.5114,1.5133,1.531,1.5241,1.5266,1.5363,1.5401,1.5418,1.545,1.5552,1.5571,1.55,1.5651,1.567,1.5729,1.5729,1.5755,1.5761,1.5887,1.5887,1.5886,1.5803,0,0,0,0,0,0,1.5107,1.513,1.5139,1.524,1.5269,1.5353,1.5401,1.5421,1.546,1.5468,1.5571,1.5588,1.5653,1.5718,1.5735,1.5738,1.5766,1.5888,1.5887,1.5886,1.5807,1.58,1.5795,0,0,0,0,0,1.5098,1.511,1.5139,1.5158,1.5281,1.5353,1.5369,1.5441,1.546,1.5471,1.5538,1.5585,1.5726,1.5723,1.5743,1.5748,1.5888,1.5887,1.5886,1.5809,1.5801,1.5795,0,0,0,0,0,0,1.5008,1.5125,1.5158,1.5202,1.5266,1.5369,1.5385,1.543,1.5492,1.5497,1.5586,1.5608,1.5659,1.571,1.5705,1.5783,1.5813,1.5816,1.5747,1.5741,1.5735,1.5721,1.5771,0,0,0,0,0,1.4993,1.5038,1.5139,1.5169,1.5199,1.5286,1.532,1.537,1.5441,1.547,1.554,1.561,1.5671,1.5709,1.577,1.5815,1.5841,1.5829,1.5823,1.5818,1.5819,1.585,1.5846,1.5883,1.5883,1.5883,0,0,1.4963,1.5032,1.5056,1.5152,1.5208,1.5256,1.5309,1.5357,1.5394,1.5478,1.5537,1.5592,1.5677,1.5729,1.5756,1.5773,1.5815,1.5817,1.5811,1.5816,1.5848,1.5845,1.5841,1.5883,1.5883,1.5883,0,0,1.4933,1.4989,1.502,1.5075,1.5158,1.5217,1.5224,1.5322,1.536,1.5421,1.5485,1.5534,1.5635,1.5693,1.5736,1.5731,1.5778,1.575,1.5718,1.5746,1.5743,1.5741,1.5741,1.5739,1.5751,1.5751,1.5751,0,1.4885,1.4957,1.5031,1.5076,1.5118,1.5194,1.5229,1.528,1.538,1.5409,1.5427,1.5557,1.562,1.5688,1.5687,1.5719,1.5733,1.5737,1.5737,1.5736,1.5735,1.5736,1.5735,1.5747,1.5747,1.5748,1.5748,0,1.4895,1.4944,1.4961,1.5053,1.5097,1.5136,1.522,1.5257,1.5304,1.5362,1.5425,1.5502,1.5582,1.5602,1.5649,1.5678,1.5687,1.572,1.5751,1.5726,1.5728,1.5729,1.5741,1.5742,1.5743,1.5744,0,0,1.481,1.4944,1.4949,1.4993,1.5092,1.5133,1.5178,1.5254,1.5284,1.5352,1.5394,1.548,1.5512,1.556,1.5615,1.564,1.5634,1.5672,1.5675,1.5662,1.5674,1.5647,1.5646,1.5666,1.5667,1.5667,1.5667,0,1.4794,1.4873,1.4944,1.5,1.5048,1.5124,1.5164,1.5231,1.5287,1.5339,1.5404,1.5463,1.55,1.5531,1.5559,1.5628,1.5637,1.563,1.5709,1.571,1.5683,1.5647,1.5619,1.5614,1.5668,1.5668,1.5668,0,1.4784,1.4847,1.4906,1.5003,1.5026,1.506,1.5136,1.5184,1.5264,1.5304,1.5359,1.5417,1.5473,1.5499,1.5578,1.5571,1.5609,1.5649,1.565,1.566,1.5687,1.5656,1.5615,1.5614,1.567,1.567,1.567,0,1.4716,1.4816,1.4865,1.4901,1.5014,1.5037,1.5086,1.5166,1.5208,1.5277,1.5306,1.538,1.5421,1.548,1.5558,1.557,1.563,1.5663,1.5667,1.5665,1.5675,1.5673,1.5639,1.5699,1.5699,1.5699,1.5699,0,1.469,1.4724,1.4836,1.4866,1.4908,1.4991,1.5031,1.5088,1.5159,1.5205,1.5277,1.5319,1.5419,1.5475,1.5537,1.5594,1.5613,1.5648,1.5664,1.5641,1.5637,1.5666,1.5669,1.5699,1.5699,1.5699,1.5699,0,1.462,1.4696,1.4755,1.4858,1.4885,1.4912,1.5002,1.5037,1.5098,1.5155,1.5174,1.5271,1.5341,1.5425,1.5522,1.5564,1.5616,1.564,1.5587,1.5596,1.5596,1.5595,1.5579,1.5582,1.564,1.5639,1.5638,0,1.4598,1.4625,1.4731,1.4766,1.4812,1.4866,1.4909,1.4994,1.5037,1.5131,1.5155,1.5229,1.5293,1.5401,1.5483,1.5559,1.5586,1.5575,1.5597,1.5574,1.5586,1.5583,1.5587,1.5569,1.5567,1.5567,1.5566,0,1.455,1.4587,1.4644,1.4716,1.4764,1.4826,1.489,1.4915,1.5014,1.5059,1.5129,1.5179,1.5278,1.5352,1.5438,1.5494,1.5547,1.5559,1.5564,1.554,1.5508,1.5526,1.5571,1.5558,1.5559,1.5559,1.556,1.556,1.4504,1.4533,1.4612,1.4675,1.4732,1.4791,1.4829,1.4895,1.4954,1.5039,1.5088,1.5157,1.5241,1.5362,1.5416,1.5475,1.5494,1.5501,1.5503,1.5503,1.5496,1.5499,1.5491,1.5492,1.5492,1.5492,1.5492,0,1.446,1.4516,1.4572,1.4659,1.471,1.4754,1.4829,1.4869,1.4928,1.5001,1.5062,1.5145,1.5218,1.5306,1.5386,1.5417,1.5443,1.5435,1.5433,1.5446,1.5474,1.5462,1.5412,1.5412,1.5412,1.5412,1.5412,1.5412,1.4443,1.4495,1.4542,1.4624,1.4681,1.4747,1.4786,1.4843,1.4901,1.4989,1.5049,1.5106,1.5187,1.5274,1.5344,1.5369,1.5396,1.5379,1.5411,1.5436,1.5443,1.545,1.5439,1.5384,1.5384,1.5378,1.5378,1.5378]}]]